CFG114 EDDF-MMUN

Flight info

Callsign CFG114
Flight time N/A
Altitude 34000
Route OBOKA3D/07C OBOKA Z29 TORNU DCT GALSO Q63 ERING L179 UGBET Q60 OKSAW DCT FELCA DCT FADZU DCT BANBA DCT LIMRI/M081F340 NATF ALLRY/N0468F360 DCT YQY/M081F360 DCT AVAST/M081F380 DCT DRYED DCT KINER DCT ALOBI DCT CNNOR/N0464F380 M328 TANIA/N0466F390 UR628 UVA/N0467F380 UR628 UHA UR522 MUPKI UB879 NOSAT NOSAT1B
Aircraft A339/H-SADE1E2E3GHIJ3J5M1P2RWXY/LB2D1

Departure

Time 2026-04-14 13:19
Airport Frankfurt Main Airport (EDDF)

Arrival

Time N/A
Airport Cancún International Airport (MMUN)
Time Latitude Longitude Altitude Speed Heading
2026-04-14 12:38 50.04836 8.57627 382 ft 0 kts 206°
2026-04-14 13:04 50.04839 8.57629 383 ft 2 kts 205°
2026-04-14 13:04 50.04853 8.57636 382 ft 2 kts 186°
2026-04-14 13:05 50.04868 8.57637 383 ft 2 kts 173°
2026-04-14 13:05 50.04882 8.57632 383 ft 2 kts 160°
2026-04-14 13:05 50.04896 8.57622 383 ft 2 kts 146°
2026-04-14 13:05 50.04907 8.57607 383 ft 2 kts 132°
2026-04-14 13:06 50.04916 8.57589 384 ft 2 kts 118°
2026-04-14 13:06 50.04921 8.57574 384 ft 0 kts 111°
2026-04-14 13:10 50.04917 8.57590 384 ft 3 kts 111°
2026-04-14 13:10 50.04906 8.57631 383 ft 5 kts 114°
2026-04-14 13:10 50.04887 8.57691 383 ft 7 kts 116°
2026-04-14 13:10 50.04863 8.57771 382 ft 8 kts 115°
2026-04-14 13:11 50.04834 8.57863 383 ft 9 kts 125°
2026-04-14 13:11 50.04776 8.57916 382 ft 10 kts 157°
2026-04-14 13:11 50.04707 8.57960 382 ft 11 kts 159°
2026-04-14 13:11 50.04630 8.58006 382 ft 11 kts 159°
2026-04-14 13:12 50.04556 8.58022 382 ft 9 kts 213°
2026-04-14 13:12 50.04529 8.57950 381 ft 8 kts 245°
2026-04-14 13:12 50.04504 8.57853 379 ft 11 kts 250°
2026-04-14 13:12 50.04473 8.57725 376 ft 14 kts 250°
2026-04-14 13:13 50.04437 8.57571 374 ft 15 kts 250°
2026-04-14 13:13 50.04400 8.57415 375 ft 14 kts 250°
2026-04-14 13:13 50.04366 8.57273 376 ft 14 kts 250°
2026-04-14 13:13 50.04331 8.57127 375 ft 14 kts 250°
2026-04-14 13:14 50.04293 8.56976 375 ft 15 kts 249°
2026-04-14 13:14 50.04254 8.56814 372 ft 17 kts 250°
2026-04-14 13:14 50.04212 8.56632 367 ft 20 kts 250°
2026-04-14 13:14 50.04162 8.56415 365 ft 21 kts 251°
2026-04-14 13:15 50.04108 8.56191 363 ft 22 kts 250°
2026-04-14 13:15 50.04052 8.55958 360 ft 22 kts 250°
2026-04-14 13:15 50.03995 8.55724 358 ft 22 kts 250°
2026-04-14 13:15 50.03942 8.55503 358 ft 21 kts 250°
2026-04-14 13:16 50.03891 8.55288 357 ft 20 kts 250°
2026-04-14 13:16 50.03842 8.55081 354 ft 20 kts 250°
2026-04-14 13:16 50.03789 8.54866 352 ft 21 kts 250°
2026-04-14 13:16 50.03737 8.54642 347 ft 22 kts 251°
2026-04-14 13:17 50.03684 8.54420 346 ft 21 kts 249°
2026-04-14 13:17 50.03623 8.54306 346 ft 9 kts 168°
2026-04-14 13:17 50.03554 8.54340 344 ft 11 kts 162°
2026-04-14 13:17 50.03493 8.54394 342 ft 6 kts 112°
2026-04-14 13:18 50.03495 8.54425 343 ft 0 kts 72°
2026-04-14 13:18 50.03501 8.54459 343 ft 20 kts 77°
2026-04-14 13:18 50.03622 8.54991 348 ft 82 kts 68°
2026-04-14 13:18 50.03896 8.56116 355 ft 136 kts 70°
2026-04-14 13:19 50.04279 8.57720 374 ft 180 kts 69°
2026-04-14 13:19 50.04735 8.59663 772 ft 190 kts 70°
2026-04-14 13:19 50.05139 8.61509 1529 ft 178 kts 69°
2026-04-14 13:19 50.05529 8.63284 2220 ft 173 kts 68°
2026-04-14 13:20 50.05934 8.65101 2523 ft 182 kts 68°
2026-04-14 13:20 50.06371 8.67048 2764 ft 194 kts 69°
2026-04-14 13:20 50.06825 8.69077 2998 ft 206 kts 68°
2026-04-14 13:20 50.07552 8.71049 3249 ft 215 kts 40°
2026-04-14 13:21 50.08865 8.72250 3554 ft 225 kts 22°
2026-04-14 13:21 50.10346 8.73209 3823 ft 240 kts 22°
2026-04-14 13:21 50.11947 8.74258 4144 ft 252 kts 22°
2026-04-14 13:21 50.13559 8.75330 4667 ft 256 kts 23°
2026-04-14 13:22 50.15206 8.76436 5265 ft 256 kts 23°
2026-04-14 13:22 50.16856 8.77549 5836 ft 257 kts 23°
2026-04-14 13:22 50.18502 8.78663 6395 ft 259 kts 23°
2026-04-14 13:22 50.20147 8.79778 6911 ft 261 kts 23°
2026-04-14 13:23 50.21839 8.80928 7377 ft 265 kts 23°
2026-04-14 13:23 50.23609 8.81775 7800 ft 269 kts
2026-04-14 13:23 50.25408 8.81055 8288 ft 270 kts 327°
2026-04-14 13:23 50.26742 8.78992 8776 ft 273 kts 301°
2026-04-14 13:24 50.27383 8.76200 9204 ft 276 kts 277°
2026-04-14 13:24 50.27810 8.70144 10119 ft 284 kts 276°
2026-04-14 13:24 50.28046 8.67060 10523 ft 290 kts 276°
2026-04-14 13:25 50.28302 8.63855 10762 ft 303 kts 277°
2026-04-14 13:25 50.28574 8.60527 10998 ft 315 kts 277°
2026-04-14 13:26 50.29475 8.49730 11769 ft 348 kts 277°
2026-04-14 13:26 50.29792 8.45949 12256 ft 351 kts 277°
2026-04-14 13:26 50.30108 8.42176 12774 ft 352 kts 277°
2026-04-14 13:26 50.30426 8.38354 13250 ft 355 kts 277°
2026-04-14 13:27 50.30747 8.34490 13733 ft 357 kts 277°
2026-04-14 13:27 50.31062 8.30666 14208 ft 360 kts 277°
2026-04-14 13:27 50.31385 8.26738 14695 ft 362 kts 277°
2026-04-14 13:27 50.31704 8.22849 15181 ft 365 kts 277°
2026-04-14 13:28 50.32026 8.18915 15657 ft 367 kts 277°
2026-04-14 13:28 50.32351 8.14912 16123 ft 370 kts 277°
2026-04-14 13:28 50.32674 8.10928 16577 ft 373 kts 278°
2026-04-14 13:28 50.33002 8.06850 17051 ft 376 kts 278°
2026-04-14 13:29 50.33329 8.02764 17517 ft 378 kts 278°
2026-04-14 13:29 50.33659 7.98639 17969 ft 381 kts 278°
2026-04-14 13:29 50.33983 7.94548 18423 ft 383 kts 278°
2026-04-14 13:29 50.34316 7.90346 18903 ft 385 kts 278°
2026-04-14 13:30 50.34645 7.86177 19385 ft 387 kts 278°
2026-04-14 13:30 50.34973 7.81987 19835 ft 389 kts 278°
2026-04-14 13:30 50.35303 7.77752 20268 ft 391 kts 278°
2026-04-14 13:30 50.35638 7.73501 20692 ft 393 kts 280°
2026-04-14 13:31 50.36413 7.69456 21041 ft 394 kts 298°
2026-04-14 13:31 50.38046 7.66028 21484 ft 393 kts 317°
2026-04-14 13:31 50.40296 7.63584 21880 ft 395 kts 334°
2026-04-14 13:31 50.42842 7.61868 22257 ft 397 kts 336°
2026-04-14 13:32 50.45391 7.60149 22576 ft 401 kts 336°
2026-04-14 13:32 50.47962 7.58392 22926 ft 403 kts 336°
2026-04-14 13:32 50.50542 7.56617 23276 ft 405 kts 335°
2026-04-14 13:32 50.53136 7.54810 23634 ft 407 kts 334°
2026-04-14 13:33 50.55672 7.52817 23970 ft 409 kts 331°
2026-04-14 13:33 50.58156 7.50570 24319 ft 410 kts 328°
2026-04-14 13:33 50.60562 7.48160 24651 ft 411 kts 327°
2026-04-14 13:33 50.62974 7.45684 24982 ft 413 kts 327°
2026-04-14 13:34 50.67782 7.40728 25603 ft 416 kts 327°
2026-04-14 13:34 50.70209 7.38229 25910 ft 417 kts 327°
2026-04-14 13:34 50.72581 7.35536 26204 ft 418 kts 319°
2026-04-14 13:35 50.74593 7.32281 26502 ft 420 kts 309°
2026-04-14 13:35 50.76261 7.28449 26786 ft 422 kts 300°
2026-04-14 13:35 50.77637 7.24350 27056 ft 424 kts 298°
2026-04-14 13:35 50.78983 7.20184 27327 ft 425 kts 298°
2026-04-14 13:36 50.80331 7.15989 27578 ft 427 kts 298°
2026-04-14 13:36 50.81667 7.11838 27837 ft 428 kts 298°
2026-04-14 13:36 50.83028 7.07615 28105 ft 429 kts 298°
2026-04-14 13:36 50.84385 7.03413 28355 ft 430 kts 298°
2026-04-14 13:37 50.85734 6.99231 28616 ft 430 kts 298°
2026-04-14 13:37 50.87099 6.95007 28859 ft 432 kts 298°
2026-04-14 13:37 50.88463 6.90781 29072 ft 433 kts 299°
2026-04-14 13:37 50.89833 6.86525 29303 ft 434 kts 299°
2026-04-14 13:38 50.91192 6.82294 29555 ft 434 kts 299°
2026-04-14 13:38 50.92570 6.77998 29790 ft 435 kts 299°
2026-04-14 13:38 50.93923 6.73767 29991 ft 436 kts 299°
2026-04-14 13:38 50.95307 6.69433 30205 ft 437 kts 299°
2026-04-14 13:39 50.96676 6.65138 30458 ft 437 kts 299°
2026-04-14 13:39 50.98037 6.60858 30771 ft 435 kts 300°
2026-04-14 13:39 50.99413 6.56524 31047 ft 433 kts 300°
2026-04-14 13:39 51.00759 6.52282 31315 ft 432 kts 300°
2026-04-14 13:40 51.02092 6.48069 31568 ft 431 kts 300°
2026-04-14 13:40 51.03436 6.43815 31823 ft 429 kts 300°
2026-04-14 13:40 51.04788 6.39528 32071 ft 428 kts 300°
2026-04-14 13:40 51.06119 6.35295 32323 ft 426 kts 300°
2026-04-14 13:41 51.07446 6.31070 32547 ft 426 kts 299°
2026-04-14 13:41 51.08747 6.26919 32743 ft 425 kts 299°
2026-04-14 13:41 51.10074 6.22677 32913 ft 426 kts 299°
2026-04-14 13:41 51.11383 6.18491 33095 ft 426 kts 298°
2026-04-14 13:42 51.12630 6.14194 33288 ft 427 kts 296°
2026-04-14 13:42 51.13723 6.09854 33455 ft 429 kts 293°
2026-04-14 13:42 51.14692 6.05354 33624 ft 430 kts 290°
2026-04-14 13:42 51.15512 6.00784 33807 ft 431 kts 289°
2026-04-14 13:43 51.16231 5.96418 34000 ft 431 kts 288°
2026-04-14 13:43 51.16983 5.91803 34156 ft 431 kts 288°
2026-04-14 13:43 51.17734 5.87169 34170 ft 432 kts 289°
2026-04-14 13:44 51.19524 5.78048 34175 ft 429 kts 292°
2026-04-14 13:44 51.21480 5.69119 34174 ft 430 kts 293°
2026-04-14 13:45 51.23455 5.60091 34172 ft 428 kts 292°
2026-04-14 13:45 51.25394 5.51176 34172 ft 429 kts 292°
2026-04-14 13:46 51.27352 5.42131 34172 ft 429 kts 292°
2026-04-14 13:46 51.29277 5.33204 34176 ft 429 kts 292°
2026-04-14 13:47 51.31215 5.24169 34175 ft 429 kts 292°
2026-04-14 13:47 51.33141 5.15152 34175 ft 428 kts 292°
2026-04-14 13:48 51.35052 5.06162 34174 ft 428 kts 292°
2026-04-14 13:48 51.36956 4.97173 34174 ft 428 kts 292°
2026-04-14 13:49 51.38850 4.88190 34177 ft 428 kts 292°
2026-04-14 13:49 51.40746 4.79155 34180 ft 427 kts 292°
2026-04-14 13:50 51.42623 4.70170 34180 ft 427 kts 292°
2026-04-14 13:50 51.44502 4.61132 34181 ft 427 kts 292°
2026-04-14 13:51 51.46356 4.52177 34182 ft 427 kts 292°
2026-04-14 13:51 51.48214 4.43157 34183 ft 427 kts 292°
2026-04-14 13:52 51.50073 4.34098 34182 ft 427 kts 292°
2026-04-14 13:52 51.51917 4.25066 34183 ft 426 kts 291°
2026-04-14 13:53 51.53746 4.16068 34182 ft 426 kts 292°
2026-04-14 13:53 51.55574 4.07045 34182 ft 426 kts 292°
2026-04-14 13:54 51.57391 3.98018 34182 ft 425 kts 292°
2026-04-14 13:54 51.59179 3.89086 34178 ft 426 kts 292°
2026-04-14 13:55 51.60995 3.79996 34182 ft 425 kts 292°
2026-04-14 13:55 51.62785 3.70990 34182 ft 424 kts 292°
2026-04-14 13:56 51.64570 3.61947 34183 ft 424 kts 292°
2026-04-14 13:56 51.66342 3.52931 34184 ft 423 kts 292°
2026-04-14 13:57 51.68111 3.43891 34182 ft 423 kts 292°
2026-04-14 13:57 51.69864 3.34886 34187 ft 422 kts 292°
2026-04-14 13:58 51.71340 3.25670 34182 ft 426 kts 285°
2026-04-14 13:58 51.72110 3.16160 34179 ft 433 kts 279°
2026-04-14 13:59 51.72147 3.06403 34177 ft 439 kts 273°
2026-04-14 13:59 51.71475 2.96624 34179 ft 443 kts 269°
2026-04-14 14:00 51.70662 2.87167 34174 ft 443 kts 269°
2026-04-14 14:00 51.69814 2.77436 34169 ft 441 kts 269°
2026-04-14 14:01 51.68980 2.67943 34166 ft 440 kts 269°
2026-04-14 14:01 51.68111 2.58216 34166 ft 442 kts 269°
2026-04-14 14:02 51.67233 2.48475 34163 ft 442 kts 269°
2026-04-14 14:02 51.66343 2.38719 34155 ft 441 kts 269°
2026-04-14 14:03 51.65441 2.28950 34158 ft 442 kts 268°
2026-04-14 14:03 51.64528 2.19162 34151 ft 442 kts 268°
2026-04-14 14:04 51.63636 2.09667 34149 ft 442 kts 268°
2026-04-14 14:04 51.62736 1.99950 34146 ft 442 kts 268°
2026-04-14 14:05 51.61826 1.90175 34150 ft 440 kts 268°
2026-04-14 14:05 51.60913 1.80469 34148 ft 439 kts 269°
2026-04-14 14:06 51.60007 1.70835 34147 ft 437 kts 270°
2026-04-14 14:06 51.59470 1.61197 34146 ft 433 kts 275°
2026-04-14 14:07 51.59505 1.51638 34146 ft 426 kts 279°
2026-04-14 14:07 51.59894 1.42199 34145 ft 425 kts 280°
2026-04-14 14:08 51.60299 1.32716 34144 ft 424 kts 279°
2026-04-14 14:08 51.60697 1.23242 34141 ft 424 kts 280°
2026-04-14 14:09 51.61076 1.13924 34140 ft 422 kts 280°
2026-04-14 14:09 51.61446 1.04586 34138 ft 421 kts 279°
2026-04-14 14:10 51.61809 0.95173 34134 ft 420 kts 279°
2026-04-14 14:10 51.62165 0.85838 34131 ft 420 kts 279°
2026-04-14 14:11 51.62514 0.76442 34127 ft 420 kts 279°
2026-04-14 14:11 51.62854 0.67140 34127 ft 419 kts 279°
2026-04-14 14:12 51.63189 0.57751 34123 ft 419 kts 279°
2026-04-14 14:12 51.63517 0.48428 34122 ft 418 kts 279°
2026-04-14 14:13 51.63836 0.39098 34119 ft 418 kts 279°
2026-04-14 14:13 51.64147 0.29710 34119 ft 420 kts 278°
2026-04-14 14:14 51.64337 0.20408 34116 ft 421 kts 275°
2026-04-14 14:14 51.64004 0.10975 34112 ft 426 kts 270°
2026-04-14 14:15 51.63130 0.01477 34110 ft 429 kts 268°
2026-04-14 14:15 51.62429 -0.07948 34102 ft 424 kts 272°
2026-04-14 14:16 51.62259 -0.16971 34107 ft 419 kts 277°
2026-04-14 14:16 51.62598 -0.26144 34101 ft 414 kts 281°
2026-04-14 14:17 51.63422 -0.39926 34100 ft 415 kts 281°
2026-04-14 14:17 51.63949 -0.48739 34098 ft 415 kts 280°
2026-04-14 14:18 51.64470 -0.57615 34093 ft 416 kts 281°
2026-04-14 14:18 51.65006 -0.66842 34096 ft 415 kts 280°
2026-04-14 14:19 51.65542 -0.76149 34088 ft 417 kts 279°
2026-04-14 14:19 51.66060 -0.85281 34080 ft 416 kts 279°
2026-04-14 14:20 51.66579 -0.94578 34080 ft 416 kts 279°
2026-04-14 14:20 51.67091 -1.03861 34079 ft 416 kts 279°
2026-04-14 14:21 51.67587 -1.13069 34075 ft 416 kts 279°
2026-04-14 14:21 51.68085 -1.22333 34065 ft 415 kts 279°
2026-04-14 14:22 51.68572 -1.31567 34064 ft 415 kts 279°
2026-04-14 14:22 51.69049 -1.40834 34062 ft 415 kts 279°
2026-04-14 14:23 51.69521 -1.50091 34063 ft 415 kts 278°
2026-04-14 14:23 51.69983 -1.59330 34061 ft 416 kts 278°
2026-04-14 14:24 51.70455 -1.68596 34059 ft 415 kts 279°
2026-04-14 14:24 51.71108 -1.77654 34058 ft 415 kts 279°
2026-04-14 14:25 51.71780 -1.86910 34055 ft 415 kts 279°
2026-04-14 14:25 51.72436 -1.96107 34056 ft 415 kts 279°
2026-04-14 14:26 51.73090 -2.05337 34056 ft 415 kts 279°
2026-04-14 14:26 51.73735 -2.14600 34059 ft 414 kts 279°
2026-04-14 14:27 51.74367 -2.23786 34053 ft 414 kts 279°
2026-04-14 14:27 51.74997 -2.33029 34051 ft 414 kts 279°
2026-04-14 14:28 51.75597 -2.41931 34038 ft 414 kts 279°
2026-04-14 14:28 51.76212 -2.51176 34034 ft 414 kts 279°
2026-04-14 14:29 51.76815 -2.60369 34032 ft 415 kts 278°
2026-04-14 14:29 51.77418 -2.69651 34027 ft 414 kts 278°
2026-04-14 14:30 51.77994 -2.78627 34015 ft 415 kts 277°
2026-04-14 14:30 51.78579 -2.87883 34014 ft 415 kts 278°
2026-04-14 14:31 51.79160 -2.97148 34006 ft 415 kts 277°
2026-04-14 14:31 51.79734 -3.06473 33996 ft 416 kts 277°
2026-04-14 14:32 51.80297 -3.15709 33993 ft 415 kts 277°
2026-04-14 14:32 51.80852 -3.24959 33983 ft 415 kts 277°
2026-04-14 14:33 51.81402 -3.34253 33977 ft 416 kts 277°
2026-04-14 14:33 51.81934 -3.43387 33973 ft 415 kts 277°
2026-04-14 14:34 51.83015 -3.57264 33974 ft 414 kts 282°
2026-04-14 14:35 51.84170 -3.66346 33976 ft 413 kts 282°
2026-04-14 14:35 51.85334 -3.75388 33965 ft 413 kts 282°
2026-04-14 14:36 51.86500 -3.84496 33965 ft 412 kts 282°
2026-04-14 14:36 51.87614 -3.93330 33962 ft 412 kts 280°
2026-04-14 14:37 51.88381 -4.02468 33959 ft 413 kts 276°
2026-04-14 14:37 51.88784 -4.11784 33959 ft 411 kts 275°
2026-04-14 14:38 51.89151 -4.20980 33958 ft 411 kts 275°
2026-04-14 14:38 51.89513 -4.30236 33951 ft 411 kts 274°
2026-04-14 14:39 51.89860 -4.39422 33953 ft 410 kts 274°
2026-04-14 14:39 51.90204 -4.48668 33951 ft 410 kts 274°
2026-04-14 14:40 51.90531 -4.57740 33951 ft 410 kts 274°
2026-04-14 14:40 51.90855 -4.66882 33952 ft 411 kts 273°
2026-04-14 14:41 51.91172 -4.76058 33944 ft 410 kts 273°
2026-04-14 14:41 51.91476 -4.85024 33949 ft 409 kts 273°
2026-04-14 14:42 51.91765 -4.93732 33943 ft 409 kts 273°
2026-04-14 14:42 51.92062 -5.02861 33936 ft 407 kts 272°
2026-04-14 14:43 51.92352 -5.12034 33932 ft 407 kts 272°
2026-04-14 14:43 51.92633 -5.21206 33939 ft 408 kts 272°
2026-04-14 14:44 51.92910 -5.30400 33936 ft 408 kts 273°
2026-04-14 14:44 51.93180 -5.39607 33929 ft 409 kts 272°
2026-04-14 14:45 51.93442 -5.48807 33922 ft 409 kts 272°
2026-04-14 14:45 51.93695 -5.57910 33919 ft 409 kts 272°
2026-04-14 14:46 51.93942 -5.67170 33915 ft 411 kts 271°
2026-04-14 14:46 51.94185 -5.76438 33907 ft 411 kts 271°
2026-04-14 14:47 51.94419 -5.85747 33907 ft 410 kts 271°
2026-04-14 14:47 51.94635 -5.94590 33906 ft 411 kts 271°
2026-04-14 14:48 51.94854 -6.03855 33904 ft 411 kts 271°
2026-04-14 14:48 51.95063 -6.13130 33904 ft 411 kts 271°
2026-04-14 14:49 51.95264 -6.22256 33896 ft 412 kts 270°
2026-04-14 14:49 51.95584 -6.31419 33895 ft 411 kts 272°
2026-04-14 14:50 51.95995 -6.40706 33889 ft 411 kts 272°
2026-04-14 14:50 51.96384 -6.49909 33884 ft 412 kts 272°
2026-04-14 14:51 51.96760 -6.59199 33889 ft 412 kts 272°
2026-04-14 14:51 51.97127 -6.68436 33875 ft 412 kts 271°
2026-04-14 14:52 51.97483 -6.77711 33872 ft 411 kts 271°
2026-04-14 14:52 51.97827 -6.86803 33868 ft 412 kts 271°
2026-04-14 14:53 51.98166 -6.96041 33865 ft 413 kts 271°
2026-04-14 14:53 51.98500 -7.05288 33859 ft 414 kts 271°
2026-04-14 14:54 51.98819 -7.14337 33868 ft 413 kts 271°
2026-04-14 14:54 51.99141 -7.23630 33856 ft 413 kts 270°
2026-04-14 14:55 51.99453 -7.32906 33852 ft 413 kts 271°
2026-04-14 14:55 51.99757 -7.42206 33848 ft 414 kts 271°
2026-04-14 14:56 52.00200 -7.56132 33838 ft 414 kts 270°
2026-04-14 14:56 52.00488 -7.65427 33850 ft 414 kts 270°
2026-04-14 14:57 52.00771 -7.74757 33844 ft 414 kts 270°
2026-04-14 14:57 52.01037 -7.83842 33841 ft 413 kts 269°
2026-04-14 14:58 52.01306 -7.93145 33839 ft 413 kts 269°
2026-04-14 14:58 52.01566 -8.02526 33836 ft 414 kts 269°
2026-04-14 14:59 52.01815 -8.11809 33831 ft 412 kts 269°
2026-04-14 14:59 52.02059 -8.21090 33825 ft 412 kts 269°
2026-04-14 15:00 52.02290 -8.30139 33820 ft 411 kts 269°
2026-04-14 15:00 52.02511 -8.39194 33819 ft 409 kts 269°
2026-04-14 15:01 52.02721 -8.47918 33820 ft 409 kts 269°
2026-04-14 15:01 52.02934 -8.57054 33813 ft 410 kts 268°
2026-04-14 15:02 52.03140 -8.66292 33809 ft 410 kts 268°
2026-04-14 15:02 52.03337 -8.75525 33800 ft 408 kts 268°
2026-04-14 15:03 52.03529 -8.84658 33802 ft 407 kts 267°
2026-04-14 15:03 52.03713 -8.93844 33796 ft 408 kts 266°
2026-04-14 15:04 52.03888 -9.03008 33794 ft 407 kts 266°
2026-04-14 15:04 52.04054 -9.12129 33786 ft 406 kts 267°
2026-04-14 15:05 52.04219 -9.21302 33782 ft 408 kts 266°
2026-04-14 15:05 52.04365 -9.30102 33780 ft 407 kts 266°
2026-04-14 15:06 52.04513 -9.39254 33781 ft 407 kts 266°
2026-04-14 15:06 52.04655 -9.48461 33780 ft 408 kts 266°
2026-04-14 15:07 52.04787 -9.57613 33775 ft 408 kts 266°
2026-04-14 15:07 52.04915 -9.66782 33776 ft 408 kts 266°
2026-04-14 15:08 52.05034 -9.75943 33776 ft 408 kts 265°
2026-04-14 15:08 52.05144 -9.85158 33769 ft 410 kts 266°
2026-04-14 15:09 52.05252 -9.94371 33764 ft 410 kts 265°
2026-04-14 15:09 52.05349 -10.03618 33747 ft 410 kts 265°
2026-04-14 15:10 52.05441 -10.12815 33750 ft 410 kts 266°
2026-04-14 15:10 52.05525 -10.22055 33748 ft 409 kts 265°
2026-04-14 15:11 52.05604 -10.31252 33738 ft 408 kts 265°
2026-04-14 15:11 52.05672 -10.40415 33737 ft 408 kts 265°
2026-04-14 15:12 52.05736 -10.49565 33738 ft 408 kts 265°
2026-04-14 15:12 52.05792 -10.58737 33736 ft 407 kts 265°
2026-04-14 15:13 52.05838 -10.67881 33739 ft 406 kts 264°
2026-04-14 15:13 52.05878 -10.77055 33742 ft 405 kts 264°
2026-04-14 15:14 52.05915 -10.86149 33734 ft 406 kts 264°
2026-04-14 15:14 52.05940 -10.95296 33737 ft 405 kts 264°
2026-04-14 15:15 52.05960 -11.04425 33736 ft 404 kts 264°
2026-04-14 15:15 52.05974 -11.13517 33737 ft 404 kts 264°
2026-04-14 15:16 52.05980 -11.22611 33730 ft 403 kts 264°
2026-04-14 15:16 52.05978 -11.31694 33729 ft 402 kts 264°
2026-04-14 15:17 52.05972 -11.40730 33721 ft 401 kts 263°
2026-04-14 15:17 52.05956 -11.49757 33713 ft 402 kts 263°
2026-04-14 15:18 52.05936 -11.58736 33695 ft 400 kts 263°
2026-04-14 15:18 52.05905 -11.67778 33699 ft 399 kts 262°
2026-04-14 15:19 52.05871 -11.76772 33686 ft 398 kts 262°
2026-04-14 15:19 52.05827 -11.85749 33683 ft 398 kts 262°
2026-04-14 15:20 52.05779 -11.94649 33679 ft 397 kts 262°
2026-04-14 15:20 52.05723 -12.03604 33686 ft 397 kts 262°
2026-04-14 15:21 52.05661 -12.12504 33682 ft 396 kts 262°
2026-04-14 15:21 52.05591 -12.21443 33676 ft 396 kts 262°
2026-04-14 15:22 52.05518 -12.30342 33667 ft 397 kts 261°
2026-04-14 15:22 52.05434 -12.39260 33684 ft 396 kts 261°
2026-04-14 15:23 52.05345 -12.48181 33684 ft 395 kts 261°
2026-04-14 15:23 52.05252 -12.57057 33677 ft 395 kts 260°
2026-04-14 15:24 52.05145 -12.65939 33677 ft 393 kts 260°
2026-04-14 15:24 52.05037 -12.74750 33655 ft 391 kts 259°
2026-04-14 15:25 52.04924 -12.83388 33657 ft 392 kts 259°
2026-04-14 15:25 52.04804 -12.92208 33647 ft 393 kts 259°
2026-04-14 15:26 52.04675 -13.01076 33645 ft 393 kts 259°
2026-04-14 15:26 52.04539 -13.09922 33638 ft 395 kts 259°
2026-04-14 15:27 52.04398 -13.18799 33643 ft 394 kts 259°
2026-04-14 15:27 52.04246 -13.27612 33625 ft 394 kts 259°
2026-04-14 15:28 52.04091 -13.36484 33631 ft 394 kts 259°
2026-04-14 15:28 52.03931 -13.45350 33629 ft 394 kts 259°
2026-04-14 15:29 52.03761 -13.54153 33619 ft 394 kts 259°
2026-04-14 15:29 52.03586 -13.63031 33623 ft 394 kts 258°
2026-04-14 15:30 52.03403 -13.71887 33630 ft 393 kts 258°
2026-04-14 15:30 52.03217 -13.80681 33628 ft 394 kts 258°
2026-04-14 15:31 52.03023 -13.89536 33618 ft 394 kts 257°
2026-04-14 15:31 52.02822 -13.98463 33599 ft 395 kts 257°
2026-04-14 15:32 52.02615 -14.07259 33588 ft 394 kts 257°
2026-04-14 15:32 52.02403 -14.16112 33581 ft 394 kts 257°
2026-04-14 15:33 52.02175 -14.25019 33588 ft 394 kts 257°
2026-04-14 15:33 52.01948 -14.33865 33597 ft 396 kts 257°
2026-04-14 15:34 52.01709 -14.42741 33601 ft 396 kts 257°
2026-04-14 15:34 52.01466 -14.51644 33596 ft 394 kts 256°
2026-04-14 15:35 52.01222 -14.60325 33598 ft 395 kts 256°
2026-04-14 15:35 52.00964 -14.69143 33589 ft 397 kts 255°
2026-04-14 15:36 52.00698 -14.78000 33587 ft 395 kts 255°
2026-04-14 15:36 52.00509 -14.86959 33580 ft 400 kts 258°
2026-04-14 15:37 52.00819 -14.95877 33576 ft 412 kts 263°
2026-04-14 15:37 52.01718 -15.05052 33569 ft 425 kts 268°